Springfield, MO

6:11 PM CST on December 09, 2019 (GMT -0600)
Springfield-Branson Regional

Weather History for KSGF - October, 2019

Change the Weather History Date:

Wednesday, October 2, 2019

  Actual Average Record
Temperature  
Mean Temperature 79 °F 62 °F  
Max Temperature 91 °F 74 °F 93 °F (1976)
Min Temperature 67 °F 51 °F 34 °F (1985)
Degree Days  
Heating Degree Days 0 5  
Month to date heating degree days 0 10  
Since 1 July heating degree days 0 65  
Cooling Degree Days 14 2  
Month to date cooling degree days 29 4  
Year to date cooling degree days 1679 1363  
Growing Degree Days 28 (Base 50)    
Moisture  
Dew Point 66 °F    
Average Humidity 66    
Maximum Humidity 84    
Minimum Humidity 47    
Precipitation  
Precipitation 0.00 in 0.12 in 2.36 in (1944)
Month to date precipitation 0.00 0.25  
Year to date precipitation 41.69 34.97  
Snow  
Snow 0.00 in - - ()
Month to date snowfall 0.0  
Since 1 July snowfall 0.0  
Since 1 September snowfall 0.0  
Snow Depth 0.00 in    
Sea Level Pressure  
Sea Level Pressure 29.94 in    
Wind  
Wind Speed 10 mph (SSW)    
Max Wind Speed 18 mph    
Max Gust Speed 26 mph    
Visibility 10 miles    
Events      
T = Trace of Precipitation, MM = Missing Value Source: NWS Daily Summary

Daily Weather History Graph

Daily Weather History Graph

Search for Another Location

Airport or City:

Astronomy

Oct. 02, 2019 Rise Set
Actual Time 7:09 AM CDT 6:55 PM CDT
Civil Twilight 6:43 AM CDT 7:21 PM CDT
Nautical Twilight 6:13 AM CDT 7:51 PM CDT
Astronomical Twilight 5:43 AM CDT 8:22 PM CDT
Moon 11:30 AM CDT (10/2) 9:55 PM CDT (10/2)
Length of Visible Light 12h 37m
Length of Day
11h 45m
Waxing Crescent, 20% of the Moon is Illuminated
Oct 2
Waxing Crescent
Oct 5
First Quarter
Oct 13
Full
Oct 21
Last Quarter
Oct 27
New

Hourly Weather History & Observations

Time (CDT) Temp. Heat Index Dew Point Humidity Pressure Visibility Wind Dir Wind Speed Gust Speed Precip Events Conditions
12:52 AM 73.0 °F - 66.0 °F 79% 29.91 in 10.0 mi South 11.5 mph - N/A   Clear
1:52 AM 73.0 °F - 64.9 °F 76% 29.91 in 10.0 mi South 10.4 mph - N/A   Clear
2:52 AM 71.1 °F - 64.9 °F 81% 29.92 in 10.0 mi South 8.1 mph - N/A   Clear
3:52 AM 70.0 °F - 64.9 °F 84% 29.93 in 10.0 mi South 5.8 mph - N/A   Clear
4:52 AM 69.1 °F - 64.9 °F 87% 29.94 in 10.0 mi SSE 9.2 mph - N/A   Clear
5:52 AM 69.1 °F - 64.0 °F 84% 29.95 in 10.0 mi South 9.2 mph - N/A   Clear
6:52 AM 69.1 °F - 64.0 °F 84% 29.96 in 10.0 mi South 8.1 mph - N/A   Clear
7:52 AM 70.0 °F - 64.9 °F 84% 29.97 in 10.0 mi South 10.4 mph - N/A   Clear
8:52 AM 73.9 °F - 66.0 °F 76% 29.97 in 10.0 mi South 11.5 mph - N/A   Clear
9:52 AM 78.1 °F - 68.0 °F 71% 29.98 in 10.0 mi SSW 12.7 mph - N/A   Clear
10:52 AM 84.0 °F 87.8 °F 69.1 °F 61% 29.97 in 10.0 mi SSW 11.5 mph - N/A   Clear
11:52 AM 86.0 °F 90.1 °F 69.1 °F 57% 29.96 in 10.0 mi SSW 17.3 mph 24.2 mph N/A   Clear
12:52 PM 86.0 °F 88.8 °F 66.9 °F 53% 29.96 in 10.0 mi WSW 11.5 mph - N/A   Mostly Cloudy
1:52 PM 90.0 °F 92.8 °F 66.9 °F 46% 29.93 in 10.0 mi WSW 12.7 mph - N/A   Partly Cloudy
2:52 PM 88.0 °F 90.3 °F 66.0 °F 48% 29.92 in 10.0 mi SW 12.7 mph - N/A   Partly Cloudy
4:52 PM 89.1 °F 92.1 °F 66.9 °F 48% 29.90 in 10.0 mi SSW 9.2 mph - N/A   Partly Cloudy
5:52 PM 86.0 °F 88.8 °F 66.9 °F 53% 29.90 in 10.0 mi South 10.4 mph - N/A   Partly Cloudy
6:52 PM 80.1 °F 82.3 °F 66.9 °F 64% 29.90 in 10.0 mi SSW 6.9 mph - N/A   Clear
7:52 PM 78.1 °F - 64.9 °F 64% 29.92 in 10.0 mi South 8.1 mph - N/A   Clear
8:52 PM 75.9 °F - 64.0 °F 67% 29.93 in 10.0 mi SSW 9.2 mph - N/A   Clear
9:52 PM 73.0 °F - 64.0 °F 73% 29.94 in 10.0 mi SSW 5.8 mph - N/A   Clear
10:52 PM 72.0 °F - 64.0 °F 76% 29.95 in 10.0 mi South 5.8 mph - N/A   Clear
11:52 PM 71.1 °F - 64.0 °F 78% 29.95 in 10.0 mi South 9.2 mph - N/A   Clear